Location: Krakow
(50.0212°N, 19.9423°E)
Time: 09:09:16
(UTC+02:00)

Envisat - Visible Passes

Search period start: 15 June 2024 00:00
Search period end: 25 June 2024 00:00
Orbit: 762 x 764 km, 98.3° (Epoch: 14 June)

Date Brightness Start Highest point End Pass type
(mag) Time Alt. Az. Time Alt. Az. Time Alt. Az.
15 Jun 5.6 02:27:47 10° ENE 02:29:41 12° E 02:31:35 10° ESE visible
16 Jun 4.3 03:27:15 10° NNE 03:32:00 38° E 03:36:42 10° SSE visible
17 Jun 5.3 02:50:38 10° NE 02:54:17 19° E 02:57:53 10° SE visible
19 Jun 4.6 03:14:17 10° NNE 03:18:45 30° E 03:23:12 10° SSE visible
20 Jun 5.4 02:38:03 10° NE 02:40:58 15° E 02:43:52 10° ESE visible
21 Jun 3.9 03:38:13 10° NNE 03:43:09 48° E 03:48:03 10° S visible
22 Jun 5.0 03:01:24 10° NE 03:05:29 24° E 03:09:33 10° SE visible
23 Jun 5.6 02:25:53 10° ENE 02:27:38 12° E 02:29:21 10° ESE visible
24 Jun 4.3 03:25:13 10° NNE 03:29:56 37° E 03:34:38 10° SSE visible
